Total_Precipitation_Accumulation
3.91 3.78 3.69 3.88 3.54 3.60 4.02 4.10 3.74 3.77 3.86 3.63 3.29 3.20 3.23 3.10 3.09 2.98 3.12 3.31 3.12 3.21 3.56 3.51 3.38 3.15 2.98 2.68 2.45 2.32 2.23 2.11 1.82 1.47 1.30 1.22 1.16 1.08 1.08 1.10 1.01 0.91 0.87
3.90 3.90 3.87 3.94 3.50 3.34 3.56 3.72 3.62 3.79 3.76 3.66 3.26 3.05 3.04 3.22 3.22 3.03 3.10 3.40 3.30 2.98 3.13 3.38 3.59 3.59 3.39 3.16 2.89 2.63 2.49 2.37 2.02 1.55 1.31 1.25 1.20 1.16 1.25 1.32 1.17 1.00 0.90
4.00 4.12 4.05 3.84 3.65 3.62 3.66 3.62 3.64 3.94 3.69 3.53 3.33 3.23 3.19 3.22 3.07 3.03 3.09 3.33 2.99 2.81 2.80 2.91 3.26 3.58 3.82 3.81 3.54 3.25 2.90 2.55 2.12 1.73 1.45 1.30 1.19 1.17 1.27 1.32 1.30 1.16 0.96
3.70 4.07 3.85 3.55 3.71 3.83 3.91 3.85 3.78 3.94 3.96 4.01 3.87 3.64 3.37 3.29 2.71 2.65 2.77 2.86 2.97 2.55 2.69 2.91 3.01 3.16 3.72 4.20 4.40 4.31 3.69 3.03 2.50 2.04 1.75 1.53 1.45 1.41 1.36 1.33 1.36 1.31 1.13
2.99 3.19 3.13 3.13 3.17 3.34 3.30 3.06 3.43 3.65 3.88 4.04 3.77 3.57 3.17 3.04 2.79 2.62 2.68 2.47 2.64 2.67 2.71 2.76 2.96 3.00 3.48 4.32 5.15 5.43 4.97 4.11 3.32 2.63 2.30 2.13 1.99 1.80 1.66 1.56 1.49 1.45 1.31
2.61 2.79 2.62 2.66 2.85 3.09 3.15 3.20 3.42 3.35 3.31 3.49 3.12 3.10 3.04 2.80 2.76 2.70 2.49 2.45 2.49 2.47 2.59 2.77 2.99 2.63 3.12 3.99 4.86 5.34 5.48 5.06 4.22 3.51 3.16 2.89 2.76 2.42 1.92 1.67 1.56 1.49 1.39
2.60 2.88 2.59 2.86 2.87 2.97 2.98 2.90 3.00 2.97 2.73 2.89 3.37 3.30 2.92 2.69 2.70 2.57 2.44 2.55 2.37 2.39 2.60 2.85 3.09 3.12 2.78 2.73 3.29 3.96 4.87 5.48 5.07 4.36 3.94 3.60 3.38 2.89 2.25 1.95 1.70 1.57 1.50
2.52 2.58 2.72 2.55 2.58 2.78 2.70 2.65 2.94 2.91 2.57 2.67 3.16 3.39 3.24 3.27 3.02 2.34 2.30 2.44 2.41 2.45 2.53 2.62 2.96 3.20 3.03 3.22 2.63 2.73 3.80 4.82 5.38 5.31 4.75 4.01 3.45 2.93 2.49 2.29 2.01 1.76 1.67
2.18 2.32 2.39 2.50 2.61 2.50 2.59 2.65 2.70 2.81 2.75 2.59 2.65 3.20 3.18 3.06 2.95 2.66 2.30 2.20 2.38 2.61 2.58 2.63 2.66 2.77 2.85 3.23 3.16 2.77 3.03 3.32 4.43 5.41 5.30 4.38 3.38 2.73 2.48 2.55 2.46 2.08 1.88
2.02 1.94 2.05 2.29 2.45 2.40 2.65 2.39 2.46 2.71 2.81 2.57 2.56 2.64 2.65 2.74 2.91 2.76 2.39 2.11 2.13 2.25 2.40 2.35 2.51 2.67 2.76 3.02 3.21 2.81 2.43 2.40 3.07 4.12 4.71 4.61 3.83 2.98 2.59 2.72 3.05 2.93 2.47
1.93 1.81 1.88 2.11 2.26 2.33 2.45 2.46 2.73 2.65 2.55 2.49 2.46 2.55 2.65 2.67 2.54 2.59 2.55 2.26 2.10 1.95 2.05 2.23 2.43 2.63 2.64 2.81 3.12 2.84 2.59 2.42 2.29 2.56 3.17 3.67 3.78 3.49 3.15 3.20 3.73 4.12 3.95
1.96 1.97 1.91 2.03 2.05 2.09 2.19 2.32 2.55 2.56 2.51 2.52 2.38 2.29 2.51 2.61 2.58 2.65 2.48 2.23 2.06 1.83 1.82 1.95 2.28 2.59 2.69 2.66 2.41 2.38 2.40 2.39 2.23 2.10 2.19 2.48 2.88 3.16 3.36 3.68 4.19 4.77 5.08
1.75 1.95 2.00 2.05 2.08 2.13 2.10 2.22 2.32 2.31 2.37 2.51 2.42 2.28 2.25 2.23 2.38 2.54 2.54 2.18 2.01 1.81 1.98 1.97 1.97 2.11 2.20 2.33 2.37 2.34 2.09 2.12 1.91 1.80 1.84 1.95 2.20 2.51 2.77 3.02 3.48 4.02 4.46
1.50 1.69 1.93 2.00 1.96 1.92 1.94 2.37 2.17 2.10 2.27 2.37 2.31 2.60 2.45 2.20 2.36 2.48 2.55 2.58 2.37 2.23 2.32 2.16 1.91 1.89 2.02 2.14 2.27 2.22 1.84 1.88 1.72 1.59 1.47 1.42 1.49 1.63 1.81 2.01 2.29 2.59 2.89
1.56 1.63 1.67 1.92 2.01 1.95 1.99 2.22 2.19 2.14 2.28 2.26 2.39 2.65 2.61 2.48 2.47 2.47 2.63 2.86 3.02 2.81 2.55 2.29 2.01 1.79 1.87 2.00 2.07 1.79 1.72 1.95 1.75 1.51 1.39 1.35 1.33 1.36 1.42 1.46 1.51 1.60 1.66
1.61 1.67 1.73 1.72 1.83 1.97 2.07 2.21 2.09 2.04 2.16 2.25 2.42 2.57 2.59 2.50 2.53 2.44 2.54 2.79 3.02 3.04 2.67 2.24 2.08 1.90 1.87 1.66 1.82 1.63 1.61 1.77 1.62 1.51 1.42 1.35 1.29 1.30 1.32 1.32 1.28 1.26 1.29
1.54 1.57 1.61 1.66 1.67 1.78 2.05 2.35 2.26 2.22 2.25 2.28 2.31 2.49 2.58 2.75 2.78 2.64 2.61 2.62 2.77 2.95 2.70 2.32 2.15 2.03 1.85 1.67 1.62 1.51 1.43 1.44 1.41 1.49 1.40 1.27 1.16 1.12 1.17 1.19 1.20 1.16 1.10
1.44 1.36 1.43 1.49 1.45 1.57 1.83 2.15 2.32 2.41 2.50 2.48 2.51 2.69 2.72 2.74 2.71 2.61 2.62 2.60 2.61 2.84 2.76 2.45 2.33 2.19 2.00 1.78 1.68 1.61 1.40 1.31 1.36 1.62 1.52 1.32 1.18 1.13 1.12 1.08 1.03 1.02 1.05
1.53 1.54 1.56 1.53 1.64 1.73 1.76 1.93 2.14 2.25 2.36 2.39 2.52 2.57 2.55 2.66 2.59 2.57 2.44 2.42 2.46 2.63 2.85 2.64 2.51 2.50 2.32 2.06 1.92 1.74 1.58 1.58 1.32 1.41 1.46 1.36 1.26 1.15 1.09 1.06 1.05 1.04 1.00
1.61 1.65 1.65 1.68 1.78 1.80 1.76 1.86 2.03 2.17 2.24 2.29 2.39 2.48 2.53 2.53 2.57 2.69 2.56 2.55 2.71 2.83 2.92 2.84 2.71 2.77 2.71 2.47 2.26 2.02 1.82 1.70 1.53 1.27 1.37 1.37 1.33 1.23 1.13 1.06 1.03 1.03 1.05
1.68 1.77 1.82 1.79 1.78 1.69 1.60 1.86 2.01 2.03 2.21 2.27 2.28 2.25 2.33 2.55 2.61 2.64 2.43 2.56 2.77 2.78 2.73 2.73 2.71 2.85 2.87 2.73 2.40 2.10 1.96 1.93 1.77 1.55 1.45 1.29 1.29 1.28 1.25 1.24 1.21 1.17 1.10
1.89 2.00 2.03 2.02 1.92 1.66 1.86 1.95 1.98 2.06 2.18 2.21 2.24 2.19 2.11 2.11 2.16 2.27 2.28 2.30 2.42 2.55 2.63 2.64 2.63 2.71 2.76 2.71 2.58 2.37 2.21 2.11 1.96 1.88 1.91 1.76 1.56 1.54 1.40 1.27 1.33 1.27 1.18
2.07 2.08 2.05 2.06 2.02 2.03 2.05 1.82 1.75 1.70 1.77 1.84 1.86 1.90 1.71 1.60 1.88 1.94 2.09 2.06 1.96 1.99 2.10 2.31 2.42 2.42 2.58 2.68 2.77 2.54 2.45 2.29 2.07 2.05 2.17 2.04 1.86 1.70 1.46 1.38 1.52 1.34 1.27
2.38 2.29 2.19 2.20 2.24 2.22 2.24 1.91 1.78 1.65 1.64 1.64 1.64 1.62 1.65 1.64 1.70 1.85 1.91 1.87 1.78 1.74 1.79 1.83 1.92 2.14 2.38 2.64 2.75 2.69 2.70 2.55 2.26 2.12 2.18 2.12 1.90 1.77 1.55 1.49 1.53 1.40 1.29
2.85 2.73 2.66 2.69 2.68 2.75 2.74 2.35 2.17 1.91 1.82 1.73 1.74 1.81 1.82 1.67 1.74 1.75 1.77 1.73 1.69 1.70 1.75 1.77 1.76 1.92 2.12 2.30 2.59 2.64 2.59 2.50 2.24 2.12 2.15 2.12 1.94 1.92 1.79 1.60 1.47 1.44 1.21
3.26 3.25 3.26 3.27 3.20 3.17 3.12 2.67 2.48 2.21 2.14 2.07 2.08 1.96 1.86 1.66 1.59 1.55 1.55 1.62 1.55 1.54 1.69 1.73 1.69 1.75 1.89 2.06 2.34 2.36 2.33 2.41 2.22 2.06 1.92 2.04 2.02 2.05 2.00 1.69 1.47 1.36 1.23